GEFSGL_500_meanwind_060.txt.gz
Wind_Speed
22 22 22 22 22 22 21 20 19 18 17 16 16 16 16 17 18 19 21 24 27 31 34 37 41 44 45 47 48 48 49 49 47 47 46 44 43 40 39 39 40 39 37
23 23 23 23 23 23 23 22 21 20 19 18 18 17 17 17 17 18 20 22 24 27 30 34 37 41 43 45 47 48 49 49 48 49 49 47 45 42 40 40 40 39 38
23 23 23 23 24 24 24 24 23 22 21 20 20 19 18 17 16 17 18 20 22 25 28 31 34 37 40 42 45 46 48 48 48 49 50 49 48 45 42 42 42 42 41
23 23 23 24 24 25 25 24 24 24 23 22 21 21 20 19 18 18 18 19 20 22 24 28 31 33 36 39 42 44 46 47 47 48 49 49 48 47 45 43 43 43 43
23 23 24 24 25 25 25 25 25 25 25 24 23 22 21 20 19 18 18 18 19 20 22 24 27 30 32 34 38 41 44 45 46 47 48 48 47 46 46 45 44 45 44
22 23 24 24 25 26 26 26 26 26 26 25 24 24 23 22 20 19 17 17 18 19 20 22 24 27 29 31 33 36 40 43 44 45 47 47 45 46 47 46 44 44 43
22 23 24 24 25 26 26 27 27 27 27 26 26 26 25 23 21 19 17 16 16 16 18 20 21 23 25 27 29 32 34 37 40 41 43 44 45 45 46 46 44 43 43
22 23 24 24 25 25 26 27 27 27 27 28 27 27 26 25 23 21 17 15 13 13 14 16 18 19 21 23 25 27 29 31 35 38 39 39 41 43 43 43 43 42 41
22 23 24 24 25 25 26 27 27 28 28 28 28 27 27 26 25 22 18 14 12 10 10 12 15 17 18 21 23 25 26 27 30 32 34 36 37 37 38 39 39 39 40
22 23 24 24 25 25 26 26 27 27 28 28 28 28 27 27 26 24 19 15 12 8 6 8 11 13 15 18 19 22 23 25 26 28 30 32 35 35 36 36 37 38 37
22 23 24 24 25 25 25 26 26 27 27 28 28 28 27 26 26 25 22 18 14 10 6 4 6 9 11 14 16 18 20 23 23 24 27 29 32 33 33 34 36 36 35
23 23 24 24 24 25 25 25 26 26 26 27 27 27 27 26 25 24 22 20 16 12 7 4 3 6 8 10 12 13 15 18 20 21 23 25 27 30 31 31 32 33 34
23 23 23 24 24 24 24 25 25 25 26 26 26 26 26 25 24 23 21 19 16 13 9 6 2 3 6 8 9 10 11 13 16 19 20 22 24 26 29 29 29 30 30
23 24 23 24 24 24 24 24 25 25 25 25 25 24 24 24 23 22 20 19 16 14 10 7 3 1 3 5 7 9 10 12 13 16 18 20 22 23 25 26 27 28 28
25 24 24 24 24 24 24 24 24 24 24 24 24 23 23 22 22 21 19 18 16 14 11 8 5 2 1 3 5 7 9 9 11 13 15 18 20 21 22 24 25 26 27
27 26 26 25 25 25 24 24 24 24 24 23 23 22 21 21 20 19 18 17 15 14 11 8 5 3 2 3 4 5 7 9 11 12 14 15 18 20 22 24 24 25 25
29 29 28 28 27 26 26 25 24 24 23 23 23 22 21 20 19 18 17 16 14 13 11 8 5 3 2 3 3 5 6 8 10 12 13 14 16 18 20 21 23 23 24
30 30 30 30 29 29 28 27 26 25 24 23 23 22 21 20 19 18 16 15 13 12 10 8 6 4 3 4 4 5 6 7 10 11 13 14 15 16 18 19 21 22 22
31 31 31 31 31 31 31 30 29 28 27 26 24 23 22 21 20 19 17 15 14 12 10 8 7 5 4 5 6 6 6 7 9 10 12 13 14 16 17 17 17 19 20
33 32 32 32 32 33 33 33 32 31 30 29 28 26 24 23 22 21 19 17 16 14 12 10 8 7 6 6 7 7 8 9 9 10 11 13 14 15 16 17 17 18 19
34 34 34 33 33 34 34 34 34 34 34 33 32 30 28 26 25 24 23 21 19 17 15 13 12 10 9 8 8 9 10 11 11 12 13 14 15 15 16 17 18 19 19
34 35 35 35 35 36 36 36 36 37 37 37 36 35 33 31 29 28 27 25 23 22 20 18 16 15 14 13 12 12 12 13 14 14 15 16 17 17 17 18 19 19 20
36 37 37 37 37 38 38 39 39 39 39 40 40 40 38 37 35 33 31 30 29 27 25 23 22 20 19 18 17 16 16 16 17 17 18 18 19 19 20 20 20 21 21
39 39 39 40 40 41 41 41 41 42 43 43 43 44 43 42 41 39 38 35 34 32 31 29 27 26 24 23 22 21 21 20 20 21 21 21 21 21 21 22 22 22 22
41 41 42 42 43 43 44 44 45 45 46 46 47 47 48 48 47 46 44 42 40 37 36 35 33 32 30 29 27 26 26 25 25 24 24 24 24 23 23 24 23 23 23
43 44 45 45 46 46 47 47 48 49 50 50 51 51 52 52 52 52 51 49 47 44 42 40 39 37 36 35 33 32 31 30 29 29 28 27 27 27 27 26 26 26 26

GEFSGL_500_meanwind_066.txt.gz
Wind_Speed
22 22 23 23 23 23 24 24 23 23 22 21 19 18 18 17 17 17 19 20 22 24 25 27 29 32 34 36 39 40 42 43 43 43 44 44 44 43 42 42 41 41 41
21 22 22 23 23 23 23 24 24 24 24 23 21 20 19 19 19 19 20 21 22 23 25 26 27 30 32 35 37 39 41 42 42 42 44 45 45 44 43 43 42 42 41
21 21 22 23 23 23 24 24 24 24 25 24 23 21 21 20 20 20 20 20 21 22 23 25 26 28 30 32 35 37 39 41 42 42 43 45 45 45 44 43 43 42 43
20 21 21 22 23 23 24 24 24 25 25 25 25 24 23 22 21 20 20 19 19 19 21 22 24 26 28 30 32 35 37 39 41 41 42 43 44 44 45 44 44 43 42
20 21 21 22 22 23 24 24 25 25 26 26 26 26 25 25 24 22 21 19 17 17 18 20 22 23 25 27 29 32 34 37 39 40 41 43 44 44 44 44 45 44 44
21 21 21 22 22 23 23 24 25 25 26 26 27 27 27 27 26 24 22 20 17 16 16 17 19 20 22 24 26 29 32 34 35 37 39 40 41 42 43 44 44 44 44
21 21 22 22 22 23 23 24 24 25 26 26 26 27 28 28 27 25 23 21 19 17 15 14 15 17 19 20 22 25 27 30 32 34 36 37 38 39 41 43 43 43 42
22 22 22 22 23 23 23 24 24 24 25 26 26 26 27 27 27 26 25 23 21 19 16 14 12 13 14 16 18 20 23 25 27 30 33 35 36 37 38 40 42 43 42
23 23 23 23 23 24 24 24 24 24 25 25 26 26 26 26 26 26 25 24 22 20 17 14 12 11 11 12 14 16 19 22 24 25 28 32 35 36 37 38 40 41 41
24 24 24 25 25 25 25 25 25 25 25 25 25 26 26 26 25 25 25 23 22 20 18 15 13 11 9 9 10 13 15 18 20 22 24 28 32 34 36 37 38 39 40
26 26 26 26 25 25 25 25 25 25 25 25 25 25 25 25 25 25 24 23 22 20 18 16 14 12 10 8 8 9 11 14 17 19 21 24 27 30 32 34 36 37 37
28 27 27 27 27 26 26 26 26 26 26 25 25 25 24 24 24 24 23 23 22 20 19 17 15 13 11 9 7 7 8 10 13 16 19 21 24 26 28 30 33 35 36
29 29 29 28 28 28 28 27 27 26 26 25 25 25 24 24 24 23 23 22 21 20 19 18 16 14 13 11 9 8 7 9 11 13 16 19 21 23 25 27 30 32 33
31 31 30 30 29 29 28 28 28 27 27 26 25 25 24 24 23 23 22 22 21 20 19 18 17 15 13 12 10 9 8 8 9 10 12 15 18 20 22 24 27 30 31
32 32 32 31 30 29 29 29 29 28 28 27 26 26 25 24 24 23 22 21 21 20 19 19 17 16 14 13 11 10 9 9 10 10 12 14 16 18 19 21 24 27 30
34 33 32 31 30 29 29 28 29 29 29 29 28 28 27 26 25 24 23 22 21 20 20 19 18 17 15 14 12 12 11 11 11 11 12 13 14 16 18 19 21 24 27
34 33 32 31 30 30 29 28 28 28 29 29 29 29 28 28 27 26 24 23 22 21 20 19 19 18 17 15 14 13 13 12 12 12 12 12 13 14 15 17 19 21 23
33 32 31 30 30 29 29 29 29 28 28 29 29 30 30 29 29 28 27 26 24 23 22 21 20 19 18 17 16 15 14 14 13 13 13 13 13 14 13 14 16 18 21
32 31 30 30 29 29 29 29 30 30 30 29 30 30 30 30 30 30 29 28 27 26 24 23 22 21 20 19 18 17 16 16 15 14 14 14 14 14 14 14 15 17 19
33 32 31 30 30 30 30 30 30 31 31 31 31 31 31 31 31 32 32 31 31 30 28 27 25 24 23 22 21 20 19 18 17 16 15 15 14 14 15 15 15 16 19
34 34 33 32 31 31 32 32 32 32 32 32 33 33 33 33 33 33 33 33 33 33 33 32 30 29 27 26 25 23 22 21 20 19 18 17 16 16 16 16 17 18 19
35 34 34 33 33 33 33 33 33 33 33 34 34 35 35 36 36 36 36 36 36 36 36 35 35 34 32 31 30 28 26 25 24 23 22 21 20 19 19 19 19 18 19
36 35 35 35 35 35 35 35 35 35 36 36 36 37 37 38 39 39 39 39 40 40 40 39 39 38 38 37 36 34 32 31 30 28 27 26 24 23 23 23 23 23 23
36 36 36 36 37 37 37 37 38 38 38 39 40 40 41 42 42 42 43 43 43 44 44 45 44 44 43 42 42 41 39 37 36 34 33 31 30 29 28 27 27 26 27
37 37 38 39 39 40 40 41 41 42 42 43 44 44 45 46 46 46 47 47 47 47 48 49 49 49 49 48 48 47 46 44 43 41 39 38 36 34 33 32 31 31 30
39 39 40 41 42 43 43 44 44 45 46 47 48 49 50 50 51 51 51 51 51 51 52 52 53 54 54 54 54 53 52 51 49 48 46 44 42 40 38 37 36 35 35

GEFSGL_500_meanwind_072.txt.gz
Wind_Speed
19 20 20 21 20 20 20 21 21 20 20 19 19 18 18 17 16 15 14 14 15 16 18 20 23 25 28 31 33 36 38 40 41 42 44 45 45 46 46 46 47 45 44
20 20 20 20 20 20 21 21 21 21 21 20 19 19 19 18 18 17 15 15 15 15 16 18 20 23 26 29 31 33 36 39 41 42 44 46 46 46 47 47 47 47 46
20 20 20 20 20 20 21 21 21 21 21 21 20 20 20 20 19 18 17 16 16 15 15 16 18 20 23 25 28 31 33 36 39 41 43 45 46 47 47 48 48 48 48
20 20 20 20 20 20 20 20 21 21 21 21 21 21 21 21 20 20 19 18 17 16 14 14 15 16 18 21 24 27 30 33 36 38 41 43 45 46 47 47 47 47 48
20 20 20 20 20 20 20 20 20 20 21 21 21 22 21 21 21 21 20 19 18 16 15 14 13 13 14 16 19 22 25 29 32 35 38 41 43 44 45 46 47 48 48
20 20 20 20 20 20 20 20 20 20 20 21 21 21 22 21 21 21 21 20 19 17 16 14 12 10 11 13 15 17 20 24 27 30 34 37 41 43 44 45 46 47 47
20 21 21 21 21 20 20 20 20 20 20 21 21 21 21 21 21 21 21 20 20 18 16 14 12 11 10 10 12 14 16 18 22 25 29 32 36 39 41 42 44 45 46
21 21 21 21 21 21 21 21 21 21 21 21 20 20 20 20 20 21 21 20 19 19 17 15 13 12 11 10 11 11 13 15 18 21 25 28 31 34 37 39 41 43 45
21 22 22 23 23 22 22 22 21 21 21 21 20 20 20 20 20 20 20 20 19 18 17 16 14 13 12 11 11 11 12 13 15 17 21 24 28 30 33 36 38 40 42
23 23 24 24 24 24 23 23 22 22 21 21 20 20 20 20 19 19 19 19 19 18 18 17 16 14 14 13 12 12 11 11 12 15 17 20 24 27 30 33 35 38 40
24 25 26 26 26 25 25 24 23 23 22 21 20 20 20 19 19 19 19 19 19 18 18 17 17 16 15 14 13 12 11 11 11 12 14 17 20 23 27 30 32 34 37
26 27 28 28 28 27 27 26 25 24 23 22 21 20 20 19 19 19 19 19 19 18 18 18 17 17 16 15 15 14 13 12 11 11 13 14 17 19 22 26 29 32 34
28 29 30 30 30 29 28 27 26 25 23 22 21 21 21 20 20 19 19 19 19 19 18 18 18 18 17 16 15 14 14 13 12 11 12 13 14 16 19 22 25 28 31
29 30 31 31 30 30 29 28 26 25 24 23 22 21 21 20 20 20 20 19 19 19 19 19 18 18 18 17 17 16 15 14 13 13 13 13 14 15 16 18 21 23 26
31 31 32 31 31 30 29 28 27 26 25 23 22 22 21 21 21 20 20 20 20 20 20 20 19 19 19 18 18 17 16 16 15 15 14 14 15 16 17 18 20 21 23
32 33 33 33 32 30 29 28 27 27 26 24 23 22 22 22 21 21 21 21 21 21 21 21 21 20 20 20 20 19 19 18 17 17 17 17 17 17 18 18 19 21 23
33 34 34 34 32 31 29 29 29 28 27 26 24 24 24 23 23 23 22 22 22 22 22 22 22 22 22 21 21 21 21 21 20 19 19 19 19 19 19 19 20 21 22
35 35 35 34 33 32 31 30 29 29 29 28 27 26 25 25 25 25 24 24 24 23 23 24 24 24 24 24 23 23 23 23 23 23 22 21 21 20 21 21 21 21 21
36 36 36 35 34 32 32 31 30 29 29 28 28 28 27 27 27 27 26 26 26 26 26 26 26 26 26 26 26 26 26 26 26 25 25 25 24 23 23 22 22 22 22
38 38 37 36 35 34 33 33 32 31 30 29 29 29 29 29 29 29 29 29 29 29 29 29 29 29 29 29 29 29 29 29 29 29 28 28 27 27 26 25 24 24 23
40 39 38 37 37 36 35 34 33 32 31 30 30 30 30 30 31 31 32 32 32 32 32 32 32 32 32 32 33 33 33 33 32 32 32 32 31 30 30 29 28 27 26
41 41 40 40 39 38 37 35 34 33 32 32 32 32 32 32 33 33 34 34 34 35 35 36 36 36 36 36 37 37 37 37 37 36 36 36 36 35 33 33 32 31 30
43 43 42 42 41 39 38 36 35 34 34 34 34 35 35 35 36 36 36 37 37 38 38 39 39 40 40 40 41 41 41 41 42 41 41 40 40 40 39 38 37 35 34
45 45 44 43 42 40 39 38 36 36 36 36 37 37 37 38 39 39 40 40 41 42 42 43 44 44 44 45 45 46 46 46 46 46 46 46 46 45 45 44 43 41 40
47 46 45 44 43 41 40 39 38 38 38 38 39 39 40 40 41 42 43 44 45 46 47 48 48 49 49 50 51 51 51 52 52 52 52 52 52 52 51 50 49 48 46
49 48 47 45 43 41 40 39 39 40 40 41 41 42 43 44 45 46 47 48 49 50 51 52 53 54 55 55 56 56 57 57 58 58 58 58 58 58 57 56 55 54 53

GEFSGL_500_meanwind_078.txt.gz
Wind_Speed
17 17 16 17 17 17 17 17 17 17 16 15 15 15 14 14 13 13 12 12 11 11 11 12 14 16 18 21 25 27 29 32 35 37 38 41 42 44 45 46 47 48 48
16 16 16 16 16 16 16 16 16 16 16 16 16 15 15 15 14 14 13 13 12 12 12 11 12 13 16 18 21 24 26 29 32 35 37 39 41 43 45 46 46 47 49
15 16 16 16 16 16 16 16 16 16 16 16 16 15 15 15 15 14 14 13 13 13 12 11 11 12 13 15 17 20 23 25 28 32 35 38 40 41 44 46 46 46 47
15 15 16 16 16 16 16 16 16 16 16 16 16 16 16 16 15 15 14 13 13 13 13 12 11 10 10 12 13 16 18 21 24 28 31 34 37 39 41 44 45 47 47
15 15 16 16 16 16 16 16 16 16 16 16 16 16 15 15 15 15 15 14 13 13 13 12 12 11 10 10 11 12 14 17 20 23 26 29 32 35 38 41 43 45 46
14 15 16 17 17 17 17 17 17 17 17 16 16 16 15 15 15 15 15 14 14 14 13 13 12 12 11 10 10 11 12 14 16 18 21 25 27 29 32 35 38 42 44
14 15 16 17 17 18 18 18 19 18 17 17 16 16 16 15 15 15 14 14 14 14 13 13 13 12 12 11 10 10 11 12 14 15 17 20 22 24 26 29 33 37 40
14 15 16 17 18 19 19 19 20 19 19 17 16 16 16 15 15 15 14 14 14 14 13 13 13 13 13 12 11 11 11 11 12 13 15 18 20 22 24 26 29 32 35
15 16 17 18 19 20 20 20 21 20 19 18 17 16 16 15 15 15 15 14 14 14 13 13 13 13 13 13 12 12 12 12 12 13 13 15 17 19 20 23 25 28 30
15 16 17 18 20 21 21 21 21 21 20 19 18 17 17 16 16 16 15 15 15 14 14 14 13 13 13 13 13 13 12 12 13 13 13 14 15 16 17 19 21 24 27
16 17 18 19 20 21 22 22 22 21 21 19 19 19 18 18 17 17 16 16 16 16 15 14 14 14 14 14 14 14 14 13 13 13 13 13 14 15 16 18 19 21 24
17 18 18 20 21 22 22 22 22 22 21 20 20 19 19 19 18 18 18 17 17 17 17 16 16 15 15 15 15 15 14 14 14 14 14 14 15 16 16 17 18 20 22
18 18 19 20 21 22 23 23 23 23 22 22 21 21 21 20 19 19 19 19 18 18 18 17 17 17 16 16 16 16 16 16 15 15 15 15 15 16 17 17 18 19 20
19 20 20 21 22 23 24 24 24 24 23 23 23 23 22 22 21 20 20 20 20 19 19 18 18 18 18 18 18 18 17 17 17 17 17 17 17 17 17 17 18 19 20
21 21 21 22 23 24 25 25 25 25 25 25 24 24 24 23 23 22 22 21 21 20 20 20 20 20 20 20 20 19 19 19 19 19 19 19 19 19 19 19 19 20 21
23 23 23 24 25 26 26 27 26 26 26 26 26 25 25 25 24 24 23 23 22 22 22 22 21 21 21 22 22 21 21 21 21 21 21 21 21 21 21 21 21 21 21
25 25 26 26 27 27 28 28 29 28 28 27 27 26 26 26 26 25 25 24 24 24 24 24 24 23 23 23 24 24 24 24 23 23 23 23 23 23 23 23 24 23 23
27 27 28 28 28 29 30 30 31 31 30 30 29 28 28 28 27 27 26 26 26 26 26 26 26 26 26 26 26 26 26 26 27 26 26 26 26 26 26 26 26 26 26
30 30 30 30 31 31 32 32 33 33 33 32 32 31 30 30 29 28 28 28 28 28 28 28 28 29 29 29 29 29 29 29 30 30 30 30 30 29 29 29 29 29 28
32 32 33 33 33 34 34 34 35 35 35 34 34 34 33 32 31 31 31 30 30 31 31 31 31 31 32 32 32 32 32 33 33 33 33 33 33 33 33 33 33 33 32
35 35 35 35 36 36 36 37 37 37 37 37 36 36 35 34 34 34 33 33 33 33 33 34 34 34 35 35 35 36 36 36 36 37 37 37 37 37 37 37 37 37 37
38 38 38 38 38 39 39 39 39 39 39 39 39 38 37 37 37 36 36 36 36 36 36 36 37 37 38 38 39 39 40 40 40 41 41 41 41 42 42 42 42 42 41
41 41 41 41 41 41 42 42 42 42 42 42 41 41 40 39 39 38 38 38 38 38 39 39 40 40 41 42 43 43 44 44 45 45 45 46 46 47 47 47 47 47 47
44 43 43 43 44 44 45 45 45 45 44 44 43 43 42 41 40 40 40 40 40 41 42 42 43 44 45 45 46 47 48 48 49 50 50 50 51 52 52 53 53 53 53
47 46 46 47 47 47 47 47 47 47 46 45 44 44 43 42 41 41 41 41 42 43 44 45 46 47 47 48 49 50 51 52 53 54 55 55 56 57 57 58 59 59 59
49 49 49 49 49 49 49 49 48 47 46 46 45 44 43 42 41 41 42 43 43 44 46 47 48 49 50 51 52 53 54 56 57 58 59 60 61 62 62 63 64 64 64

GEFSGL_500_meanwind_084.txt.gz
Wind_Speed
10 11 11 11 12 12 11 11 12 12 11 11 10 10 10 9 8 8 7 6 6 6 6 6 7 8 11 13 15 19 22 24 26 28 29 31 33 36 38 39 41 42 43
10 10 10 11 11 11 11 11 12 12 12 11 11 10 10 9 9 9 8 7 6 6 6 6 7 8 8 11 13 16 19 22 24 27 28 29 31 33 35 38 39 40 42
9 9 10 11 11 11 11 12 12 13 12 12 11 11 10 10 10 10 9 8 7 7 7 7 7 7 8 9 11 14 16 19 21 24 26 28 30 31 34 35 37 38 41
9 9 9 10 11 11 11 12 12 13 13 13 12 12 11 10 10 10 10 9 9 8 8 8 8 8 8 9 10 12 14 16 19 21 24 26 27 29 31 33 34 36 39
9 9 9 10 10 11 12 12 13 13 13 13 13 12 12 11 11 10 10 10 9 9 9 8 8 8 9 9 10 11 12 13 16 18 20 22 24 25 28 30 31 33 35
9 8 9 10 10 11 12 13 13 13 14 14 14 13 12 12 11 11 10 10 10 10 9 9 9 9 9 9 10 10 11 12 13 15 17 20 22 23 25 27 28 30 32
9 9 9 10 10 11 12 13 13 13 14 14 14 14 13 13 12 12 11 11 10 10 10 10 10 10 10 10 10 10 11 11 12 13 15 17 19 21 23 24 26 27 29
11 10 10 10 11 11 12 13 13 13 14 14 14 14 14 13 13 13 12 12 12 11 11 11 11 11 10 10 11 11 11 12 12 13 14 15 17 18 20 21 23 25 26
13 12 12 11 11 12 12 13 13 14 14 14 14 14 14 14 14 14 14 13 13 13 12 12 12 12 12 12 12 12 12 12 13 13 13 14 15 16 18 19 20 22 24
15 14 13 13 12 12 13 13 14 14 14 14 15 15 15 15 15 15 15 15 14 14 14 14 14 13 13 13 13 13 13 13 14 14 14 14 14 15 17 18 19 21 22
17 17 15 15 14 13 13 14 14 14 15 15 15 16 16 16 16 16 16 16 16 16 15 15 15 15 15 15 15 15 15 15 15 15 15 15 15 15 16 17 19 20 22
20 19 18 17 16 15 15 15 15 15 16 16 16 17 17 17 17 17 17 17 17 17 17 17 17 17 17 17 17 17 17 17 17 17 17 17 17 17 18 18 19 20 21
22 21 20 19 18 17 17 16 16 16 16 17 17 18 18 18 18 18 18 19 19 19 19 19 19 19 19 19 19 19 18 18 18 18 19 19 19 19 20 20 20 21 22
24 23 22 21 21 20 19 19 18 18 18 18 19 19 19 19 20 20 20 20 20 20 21 21 21 21 21 21 21 21 20 20 20 20 20 20 21 21 21 22 22 22 23
27 26 25 24 23 22 22 21 21 20 20 20 20 21 21 21 21 21 22 22 22 22 22 22 23 23 23 23 23 23 23 23 23 23 23 23 23 23 23 23 24 24 24
29 28 27 26 26 25 24 23 23 23 22 22 22 23 23 23 23 23 24 24 24 24 24 24 24 25 25 25 25 25 25 25 25 25 25 26 26 26 26 26 26 26 26
31 30 29 29 28 27 27 26 25 25 25 25 25 25 25 25 26 26 26 26 26 26 26 27 27 27 27 28 28 28 28 28 28 28 28 28 29 29 29 29 29 29 29
33 33 32 31 30 30 29 28 27 27 27 27 27 27 28 28 28 28 29 29 29 29 29 29 29 30 30 30 31 31 31 31 31 31 31 31 32 32 32 32 32 32 33
36 35 34 33 32 32 31 30 30 29 29 29 30 30 30 30 31 31 32 32 32 32 32 32 32 32 32 33 33 33 33 34 34 34 34 34 34 34 35 35 35 35 36
38 37 36 35 34 34 33 33 32 32 32 32 32 32 33 33 34 34 34 34 34 34 34 34 35 35 35 35 35 36 36 36 37 37 37 37 37 37 38 38 39 39 39
40 39 38 37 37 36 36 35 35 34 34 34 34 35 35 36 36 36 37 36 36 36 36 36 36 37 37 37 38 38 38 39 39 39 40 40 40 41 41 41 42 42 43
43 42 41 40 39 38 38 38 37 37 37 37 37 37 38 38 39 39 39 39 39 38 38 38 38 39 39 39 39 40 40 41 41 42 42 43 43 44 45 45 45 45 46
46 45 43 42 41 40 40 40 39 39 39 39 39 39 40 40 41 41 41 41 41 40 40 40 40 40 40 40 40 41 41 42 42 43 44 45 46 46 47 48 48 49 49
49 47 46 44 43 42 42 41 41 41 41 41 41 42 42 42 42 43 43 42 42 41 41 41 41 41 41 41 41 42 42 43 44 45 45 46 47 48 49 50 51 52 53
51 50 48 47 46 45 44 44 44 44 44 44 44 44 44 44 44 44 44 43 43 42 42 42 42 42 42 42 42 43 44 45 46 46 47 48 49 50 51 53 54 55 55
53 51 50 49 48 47 46 45 45 45 45 45 45 45 45 45 45 45 44 44 44 43 43 43 43 43 43 43 44 45 45 46 47 48 48 49 51 52 53 54 55 55 56

GEFSGL_500_meanwind_090.txt.gz
Wind_Speed
12 12 13 13 14 14 14 14 14 14 14 13 11 11 10 9 8 7 6 5 5 4 4 4 4 5 6 7 9 11 13 15 17 19 22 24 26 28 29 30 31 32 33
12 12 12 13 13 13 14 14 14 14 14 13 12 11 10 9 8 8 7 6 5 4 4 4 5 6 6 7 8 9 10 12 14 16 19 21 23 25 27 29 30 31 32
12 12 12 12 12 13 13 14 14 14 14 13 13 12 11 10 9 8 7 6 6 5 5 5 5 6 6 7 7 9 10 11 13 14 16 18 21 23 25 27 28 29 31
12 12 12 12 12 12 13 13 14 14 13 13 12 12 11 10 9 9 8 7 7 6 6 6 6 6 7 7 8 9 10 11 13 14 15 17 19 21 22 24 26 28 30
13 13 12 12 12 12 13 13 13 13 13 13 12 12 11 11 10 9 9 8 7 7 7 7 7 7 8 8 9 10 11 12 13 14 16 17 18 19 21 22 24 26 29
15 14 13 13 12 12 13 13 13 13 13 12 12 11 11 11 11 10 10 9 9 8 8 8 8 9 9 9 10 11 12 13 14 14 15 16 17 19 20 21 23 24 26
17 16 15 14 13 13 13 13 13 13 13 12 12 11 11 11 11 11 11 10 10 10 10 10 9 10 10 10 11 12 13 13 14 15 15 16 17 18 19 21 22 23 24
19 18 17 16 15 14 14 13 13 13 13 12 12 12 12 12 12 12 12 11 11 11 11 11 11 11 11 12 12 13 13 14 14 15 16 16 17 18 19 20 21 22 23
21 20 19 18 17 16 16 15 14 13 13 13 13 12 12 13 13 13 13 13 12 12 12 12 12 12 12 12 13 13 14 14 14 15 16 16 17 17 18 19 20 20 21
24 23 22 21 20 19 18 17 16 15 14 14 14 13 13 13 13 13 13 13 13 13 13 13 13 13 13 13 13 14 14 15 15 15 16 16 17 17 18 19 19 20 20
26 25 24 23 22 21 20 19 18 17 17 16 15 15 14 14 14 14 14 14 14 14 14 14 14 14 14 15 15 15 15 16 16 17 17 17 18 18 19 19 20 20 20
28 28 27 26 25 24 23 22 21 20 19 18 17 16 16 15 15 15 15 15 16 16 15 15 16 16 16 16 16 17 17 17 17 18 18 19 19 19 20 20 21 21 22
30 30 29 29 28 27 26 25 24 23 22 21 20 19 18 17 17 17 17 17 17 17 17 17 17 17 18 18 18 18 18 18 19 19 19 20 20 21 21 22 22 22 23
32 31 31 31 30 29 28 27 26 26 25 24 22 21 20 20 19 19 19 18 18 18 18 19 19 19 20 20 20 20 20 20 20 21 21 22 22 23 23 23 24 24 25
34 34 33 33 32 32 31 30 29 28 27 26 25 24 23 22 22 21 21 20 20 21 21 21 21 22 22 22 22 22 23 23 23 23 23 23 23 24 25 25 25 26 26
36 36 35 35 35 34 33 32 31 30 30 29 28 27 26 25 24 24 23 23 22 23 23 23 24 24 25 25 24 25 25 25 25 26 26 26 26 26 27 27 28 28 28
38 38 38 37 36 36 35 34 34 33 32 31 30 29 28 27 26 26 25 25 25 25 25 25 26 26 26 27 27 27 27 27 28 28 28 28 29 29 29 30 30 30 31
41 40 40 39 38 38 37 36 35 35 34 33 32 31 30 29 28 28 27 27 27 27 27 27 27 28 28 28 28 29 29 29 30 30 31 31 31 31 32 32 32 33 33
44 43 42 41 40 39 39 38 37 36 35 34 33 32 31 31 30 30 29 29 29 29 29 29 29 29 30 30 31 31 31 31 32 32 33 33 33 34 34 34 35 35 35
46 45 44 43 42 41 41 40 39 38 37 36 35 34 33 32 32 31 31 31 30 31 31 31 31 32 32 32 33 33 34 34 34 34 35 35 35 36 36 37 37 37 38
48 48 47 46 45 43 42 41 40 39 38 37 36 36 35 34 33 33 33 32 33 33 33 33 33 34 34 34 35 36 36 36 36 36 36 37 37 38 38 39 39 40 40
51 50 49 48 46 45 44 43 42 41 40 39 38 37 37 36 35 34 34 34 34 34 35 35 36 36 37 37 37 37 37 37 37 37 37 38 39 39 39 40 41 41 42
53 52 51 50 49 47 46 46 44 43 42 41 40 39 38 37 37 36 36 36 36 36 36 37 38 38 38 38 38 38 38 38 39 39 40 40 40 41 41 42 42 43 44
55 54 53 52 52 50 49 47 46 45 44 42 41 40 40 39 39 38 38 37 37 38 38 39 39 39 39 39 39 40 40 40 41 41 42 42 42 43 43 44 44 45 46
56 56 55 54 53 52 51 49 48 47 46 44 43 43 42 41 41 40 40 39 39 40 40 40 40 41 41 41 41 41 41 42 42 43 43 44 44 45 45 45 46 47 48
55 56 56 55 54 53 53 51 50 48 47 46 45 44 44 43 42 41 41 41 41 41 41 41 41 42 42 42 42 42 43 43 43 44 44 45 45 46 46 47 47 48 49

GEFSGL_500_meanwind_096.txt.gz
Wind_Speed
10 9 10 10 10 11 11 12 12 12 12 12 12 11 10 9 8 6 5 3 2 1 1 2 3 4 6 9 10 11 13 14 15 17 19 21 23 24 25 27 28 30 31
11 10 10 10 10 10 10 11 11 11 11 12 11 11 10 9 8 6 5 3 2 1 0 1 2 4 5 7 9 10 11 13 14 15 17 19 20 22 23 24 25 27 29
13 12 11 11 10 10 9 10 10 10 10 10 10 10 9 9 7 6 5 4 3 2 1 1 1 3 5 6 8 9 10 11 13 14 15 16 18 20 22 23 24 26 28
15 14 13 12 11 10 9 9 9 9 9 9 9 9 9 9 8 6 5 5 4 3 2 2 2 3 4 5 7 8 10 11 12 13 14 15 17 19 21 22 23 25 27
18 17 16 14 13 12 11 10 9 9 8 8 8 7 8 8 8 7 6 5 4 4 3 3 3 4 4 5 6 8 9 10 11 12 13 15 16 18 19 20 22 23 25
20 19 18 17 16 15 13 12 10 10 9 8 7 7 7 7 7 7 6 5 5 4 4 4 4 5 5 6 7 8 9 10 11 12 13 14 16 17 18 20 21 22 24
22 22 21 20 19 18 16 14 12 11 10 9 8 8 7 7 7 7 6 6 6 5 5 5 5 5 6 7 7 8 9 10 11 12 13 13 15 16 18 19 20 22 23
23 24 23 22 22 20 19 17 16 14 13 11 10 10 9 8 8 7 7 7 7 7 6 6 6 7 7 7 8 8 9 10 11 12 13 14 14 15 17 18 19 21 22
25 25 25 25 24 23 22 21 19 18 16 15 13 12 11 10 9 9 9 8 8 8 8 7 8 8 9 9 9 9 10 11 11 12 13 14 15 16 16 17 18 20 21
27 27 27 27 26 26 25 24 22 21 19 18 16 15 14 12 12 11 10 10 10 10 9 9 9 9 10 10 10 11 11 12 12 13 14 14 15 16 17 17 18 19 20
28 29 29 29 28 28 28 27 26 24 23 21 20 18 17 15 14 13 12 12 12 12 11 11 11 11 11 11 12 12 13 13 14 14 15 16 16 17 17 18 19 20 20
30 30 31 31 31 30 30 29 28 27 26 24 23 22 20 19 17 16 15 15 14 14 13 13 12 12 12 13 13 14 14 15 15 16 16 17 18 18 19 20 20 21 21
33 33 33 33 33 33 32 32 31 30 29 27 26 25 24 23 21 20 18 17 17 16 16 15 15 14 14 14 14 15 16 16 17 17 18 19 19 20 20 21 21 22 23
37 36 36 36 35 35 35 34 33 32 31 30 29 28 27 26 25 23 22 21 20 19 19 18 18 18 17 17 17 17 17 18 18 19 20 20 21 21 21 22 23 23 24
40 39 39 38 38 37 37 37 36 35 34 33 32 31 30 28 28 27 26 24 23 23 22 21 21 20 20 19 19 19 19 19 20 20 21 21 22 22 23 23 24 25 26
44 42 42 41 41 40 40 39 38 37 36 35 35 33 32 31 30 29 28 27 26 25 25 24 23 23 22 22 21 21 21 21 21 22 22 23 24 24 25 25 26 27 28
47 46 44 44 44 43 42 41 41 40 39 38 37 36 35 33 32 31 30 29 28 28 27 26 25 25 24 24 24 23 23 23 24 24 24 25 26 26 27 28 28 29 30
50 49 47 46 46 45 44 44 43 43 42 41 40 38 37 36 35 33 32 31 30 29 29 28 27 27 26 26 25 25 25 25 26 26 26 27 27 28 29 30 30 31 31
51 50 50 49 48 48 47 46 46 46 45 43 42 41 40 38 37 36 34 33 32 31 30 30 29 28 28 27 27 27 27 27 27 28 28 29 29 30 30 31 31 32 33
53 52 52 51 50 50 49 49 48 48 47 45 44 43 42 41 39 38 36 35 34 33 32 31 30 30 29 29 29 28 28 28 29 29 29 30 31 31 31 32 32 33 34
54 54 54 54 53 52 51 51 50 49 48 47 46 45 44 43 41 40 38 37 35 34 33 33 32 31 31 30 30 30 30 30 30 30 30 31 32 32 33 33 34 35 36
56 55 55 56 56 54 53 53 52 51 50 50 49 48 47 46 44 42 40 39 38 36 35 34 33 32 32 31 31 31 31 31 31 31 31 32 33 33 34 35 36 37 38
56 57 57 57 57 56 55 55 55 54 53 52 51 50 49 47 46 44 42 41 39 38 37 36 35 34 33 32 32 32 31 31 31 32 32 33 34 35 36 37 38 39 40
54 55 55 55 55 55 55 55 56 56 55 54 53 52 51 49 47 46 44 42 41 40 39 37 36 36 34 33 33 33 33 32 33 33 33 34 35 36 37 38 39 40 40
50 50 51 52 51 52 53 53 54 55 55 55 54 53 52 51 49 48 46 45 43 42 41 39 38 37 36 35 35 34 34 34 34 35 35 36 37 38 38 39 40 41 42
46 47 48 50 50 50 51 52 52 54 54 54 53 53 53 52 50 49 48 46 45 44 42 41 40 38 37 36 36 36 35 35 35 36 36 37 38 39 40 41 42 42 43

GEFSGL_500_meanwind_102.txt.gz
Wind_Speed
14 14 14 13 13 14 14 14 14 13 13 13 13 12 11 10 8 7 5 4 3 1 2 3 4 5 6 7 9 10 12 14 15 16 18 19 21 22 23 24 24 25 26
16 16 16 15 15 15 15 15 14 13 13 12 12 11 11 10 8 6 5 4 3 1 1 2 4 5 6 7 8 9 11 12 14 15 16 17 18 20 21 23 24 25 26
18 18 18 18 17 16 16 15 15 14 13 12 12 11 10 9 8 6 5 4 3 2 1 2 4 5 6 7 9 9 10 11 12 13 14 16 17 18 19 21 22 23 24
19 19 20 20 19 18 18 17 16 15 14 13 12 11 10 9 8 7 5 5 4 3 2 3 4 5 6 7 8 9 10 11 12 12 13 14 15 16 18 19 20 21 22
21 21 21 22 22 21 20 19 18 17 16 15 14 13 12 10 9 7 6 5 5 4 4 5 5 5 6 7 8 9 10 11 11 13 13 14 15 16 17 18 19 20 22
22 22 23 23 23 23 23 22 21 20 19 18 17 16 14 13 11 10 8 7 6 6 6 6 6 7 7 8 8 9 10 11 12 12 13 14 15 16 17 18 19 20 21
24 24 24 24 25 25 25 25 24 23 22 21 20 19 17 15 14 13 11 10 9 8 8 8 7 8 8 8 9 10 10 10 11 12 13 14 15 16 17 17 18 19 20
27 27 27 26 26 26 26 26 26 26 25 24 23 22 20 19 17 16 15 13 12 11 10 10 10 9 9 9 10 10 11 11 12 12 13 14 14 15 16 17 18 18 19
29 29 29 29 28 28 28 28 28 28 27 26 25 24 23 22 21 20 18 17 15 14 14 13 13 12 11 11 11 12 12 12 12 13 13 14 14 15 16 16 17 18 19
32 32 32 32 32 31 31 31 30 30 30 29 28 27 26 25 24 23 22 20 19 18 17 16 15 15 14 14 14 13 14 14 14 14 14 15 16 16 17 17 18 19 19
36 35 35 35 35 34 34 34 33 32 32 32 31 30 29 28 28 26 25 24 23 21 20 19 18 18 17 17 16 16 16 16 15 15 15 16 16 17 17 18 19 19 20
39 39 39 39 38 38 37 37 36 36 35 34 34 33 32 31 31 30 29 27 26 25 24 22 21 20 19 19 18 18 18 18 17 17 17 17 17 18 18 19 20 20 21
43 43 42 42 41 40 40 39 39 39 38 37 37 35 35 34 34 33 32 31 30 28 27 26 24 23 22 21 20 20 19 19 19 18 18 18 18 19 19 20 20 21 21
47 47 46 45 45 44 43 42 42 41 41 40 39 38 38 38 37 35 34 34 33 32 31 29 28 27 25 24 23 23 22 21 21 20 20 20 20 20 20 21 21 22 22
49 49 49 48 48 47 46 45 45 44 44 43 42 42 41 40 39 39 38 36 35 35 34 32 31 30 29 28 27 26 25 24 24 23 23 22 22 22 22 22 23 23 24
51 51 50 49 49 49 49 48 47 46 46 45 45 45 44 43 42 42 41 40 38 38 36 35 34 33 32 30 29 29 28 27 27 26 25 25 24 24 24 24 24 25 25
52 51 51 50 50 50 50 50 49 48 48 48 47 47 46 46 45 45 44 43 42 40 39 38 37 36 34 33 32 31 31 30 29 29 28 27 27 26 26 26 26 26 27
52 52 52 52 51 50 51 51 51 51 50 50 49 49 48 48 48 48 47 46 44 42 41 40 39 38 37 36 35 34 33 32 31 31 30 29 29 29 28 28 28 28 28
53 53 53 53 52 51 52 53 53 53 53 52 51 51 51 51 51 50 49 48 46 44 43 42 41 41 40 39 37 36 35 34 33 33 32 31 31 30 30 30 29 29 30
55 54 54 54 53 53 53 54 54 55 55 55 54 53 53 53 53 53 52 50 48 47 45 44 43 42 42 41 40 38 37 36 35 34 34 33 32 32 31 31 30 30 31
54 53 53 53 53 53 53 53 54 55 56 56 56 56 55 55 55 54 54 53 51 50 48 47 45 44 43 42 41 40 39 38 36 36 35 34 34 33 32 32 32 31 31
53 52 51 52 52 53 54 54 53 54 55 56 57 58 58 57 56 56 55 55 54 53 51 50 48 46 45 44 43 41 40 39 38 37 36 35 35 34 34 33 33 32 32
53 52 51 51 51 52 53 53 53 53 54 56 57 58 58 58 57 57 56 56 55 55 54 52 50 49 47 45 44 43 41 40 39 38 37 36 35 35 34 34 34 34 34
54 53 52 51 50 50 50 50 51 51 51 52 53 55 56 56 56 56 55 55 55 56 55 53 52 50 48 47 45 44 43 42 40 39 38 37 36 36 35 35 34 35 35
53 52 51 50 49 48 48 48 48 48 48 49 50 52 53 53 54 54 54 54 55 55 55 54 52 51 50 48 47 46 44 43 41 40 39 37 37 36 36 36 35 35 35
52 51 50 48 47 46 46 46 46 46 46 47 48 49 50 51 52 53 52 52 52 52 52 53 52 51 50 49 49 47 45 43 42 41 40 39 38 37 36 36 36 36 36

GEFSGL_500_meanwind_108.txt.gz
Wind_Speed
14 15 16 17 17 17 17 17 17 17 17 17 17 16 16 15 14 12 11 10 8 6 4 3 4 5 6 8 10 13 15 17 17 19 20 21 22 23 24 26 26 26 27
16 17 17 18 18 18 19 19 18 18 18 18 17 17 16 15 14 12 11 10 9 7 5 4 5 6 7 8 10 12 14 15 16 17 18 20 21 22 24 25 25 26 26
17 18 19 19 20 20 20 20 20 19 19 18 18 17 17 15 14 13 11 10 9 8 7 6 6 7 8 9 10 12 13 14 15 16 17 19 20 21 22 23 24 26 26
18 19 20 20 21 21 22 22 21 21 20 20 19 19 18 17 15 14 13 11 10 9 9 8 7 8 9 10 12 13 13 14 15 16 17 17 18 20 21 22 22 24 25
20 21 22 22 23 23 23 23 23 23 22 22 21 20 19 19 17 16 15 13 12 11 11 10 9 9 10 12 13 14 14 15 16 16 17 17 18 19 20 20 22 23 24
23 24 24 25 25 25 25 25 24 24 24 24 23 22 21 20 20 19 17 16 15 14 13 13 13 12 12 12 13 14 15 16 17 17 17 18 18 18 19 20 21 22 23
25 26 27 28 28 28 27 27 26 26 26 26 25 25 24 23 22 21 20 19 18 17 16 16 15 15 15 15 15 16 16 17 18 19 19 19 19 19 20 21 21 22 22
27 28 29 30 30 30 30 30 29 29 29 28 28 28 27 27 26 24 23 22 21 20 20 19 18 18 18 17 17 17 18 18 19 18 19 19 20 20 20 21 22 22 23
30 31 32 32 33 33 33 33 33 33 32 32 31 31 30 29 29 28 27 26 25 24 23 22 21 21 20 20 20 20 19 20 20 20 20 19 19 19 19 20 21 23 23
34 34 34 35 36 36 36 36 37 36 36 35 34 34 33 32 32 31 31 29 28 28 26 25 25 24 24 23 23 22 22 21 21 21 21 21 21 20 20 20 20 21 22
37 37 38 39 39 39 39 39 39 39 39 38 38 37 36 36 35 35 34 33 32 31 30 29 28 27 27 26 26 25 24 24 23 23 22 22 22 22 22 21 21 21 22
40 41 42 43 43 43 42 42 41 41 41 41 40 40 40 39 38 38 37 36 35 35 34 33 31 31 30 29 29 28 27 27 26 25 25 24 24 24 24 23 23 23 23
43 44 45 45 46 45 45 45 44 44 43 43 43 43 42 42 41 40 40 40 39 38 37 36 35 34 33 32 31 31 30 29 29 28 28 27 26 26 25 25 25 24 24
46 47 47 47 47 48 47 46 46 46 46 45 46 45 45 45 44 43 43 43 42 41 40 40 39 37 36 35 34 33 33 32 31 30 29 29 28 27 26 26 25 25 25
49 49 49 49 49 49 48 48 47 47 48 48 48 48 48 47 46 47 46 45 45 44 43 43 42 40 38 37 37 36 35 34 33 32 32 31 30 29 28 27 26 26 26
52 52 51 51 51 51 50 49 49 50 49 49 49 49 49 49 49 49 49 48 48 47 47 45 44 42 41 40 39 38 37 36 35 35 34 33 32 31 30 29 28 28 27
55 55 54 54 53 53 52 51 51 50 50 50 50 50 50 50 50 50 51 51 51 51 50 48 46 45 43 42 41 40 39 38 38 37 36 35 34 33 32 31 30 30 29
57 57 56 55 55 54 54 53 53 51 49 49 50 50 50 50 51 51 52 52 52 52 52 50 49 47 46 45 44 43 42 41 40 39 38 37 36 35 34 33 32 31 31
59 58 58 57 56 56 56 55 53 52 50 49 49 50 50 50 51 52 52 53 53 53 52 52 51 50 49 48 47 46 44 43 41 40 39 38 37 36 35 35 34 33 33
61 60 59 59 58 58 57 55 53 52 51 50 50 50 50 50 50 51 52 53 53 53 53 53 52 51 51 50 49 48 47 45 44 42 41 40 39 38 37 36 35 34 33
63 61 60 60 59 59 57 55 53 52 51 51 50 50 50 50 51 52 53 53 52 53 53 53 52 52 52 52 51 50 49 48 46 44 43 41 40 39 38 37 36 35 34
63 63 62 61 60 58 57 55 54 52 51 50 49 49 49 49 49 50 52 52 52 52 52 53 53 52 52 52 52 51 50 49 48 46 44 43 42 40 39 38 37 36 35
64 63 62 61 59 58 57 55 54 52 50 49 49 48 47 47 46 46 48 49 50 51 51 52 52 52 53 53 52 52 51 49 49 48 46 45 43 42 40 38 37 36 36
63 62 61 60 58 57 56 55 53 51 50 49 48 47 46 46 45 44 45 46 47 49 49 50 51 51 52 52 51 50 50 50 49 49 47 46 44 43 42 40 38 37 36
62 61 60 59 57 56 55 53 51 50 48 47 46 46 45 44 43 43 44 44 45 46 47 49 50 50 51 52 50 49 48 48 48 48 47 46 44 43 42 40 39 38 37
61 59 58 56 54 54 53 51 49 48 47 45 44 43 42 41 41 40 41 40 42 44 46 48 49 49 50 51 49 48 47 47 47 46 46 45 44 43 42 41 40 39 38

GEFSGL_500_meanwind_114.txt.gz
Wind_Speed
12 14 15 16 17 18 19 21 21 21 21 21 21 21 21 20 19 18 16 15 14 13 12 11 9 8 6 6 7 8 9 11 13 14 15 18 19 21 22 23 23 24 24
13 14 15 17 18 19 20 21 22 22 22 22 22 22 21 21 20 19 18 16 15 14 13 12 10 9 8 8 8 9 10 11 12 14 15 17 19 21 22 23 23 25 25
13 14 16 17 19 20 21 22 23 24 24 23 23 23 22 21 21 20 19 17 16 15 14 13 11 11 10 9 9 10 10 12 13 14 15 17 18 20 21 23 23 24 26
14 15 17 18 20 21 22 23 24 25 25 25 25 25 24 22 22 21 20 19 18 17 16 15 13 13 12 12 12 12 12 12 13 14 16 17 19 21 22 23 24 24 26
15 16 18 19 21 22 23 24 25 26 26 27 27 26 26 24 23 23 22 21 20 19 18 17 16 15 14 14 13 13 14 14 14 15 17 18 19 21 21 23 24 25 26
16 18 19 21 22 23 24 25 26 27 28 28 28 28 27 26 25 25 24 24 22 21 20 19 19 18 17 17 16 16 16 17 17 18 18 19 20 21 22 22 24 25 26
18 19 21 22 23 25 26 27 28 28 29 29 30 30 30 29 27 26 26 26 25 24 23 22 21 20 20 20 20 19 19 19 20 20 20 21 21 22 22 23 24 25 25
20 21 22 24 25 27 28 29 30 30 31 32 32 32 32 32 31 29 29 28 28 28 27 26 25 24 23 23 23 23 22 22 22 22 23 23 22 23 23 24 24 25 25
23 24 25 26 27 28 29 30 31 32 33 34 34 35 34 33 33 32 32 31 31 31 31 30 29 28 27 26 26 25 25 25 25 25 25 25 25 25 25 25 26 26 26
25 26 27 28 30 31 32 33 34 35 36 37 37 37 36 36 35 35 35 34 34 33 33 33 33 31 31 30 30 29 28 28 28 27 27 27 27 27 27 27 27 27 27
27 28 29 31 32 34 35 36 38 39 39 40 40 40 40 40 39 38 38 37 36 36 36 36 36 35 34 34 33 32 32 32 31 30 29 29 29 29 29 29 29 28 28
30 32 33 34 36 37 38 40 41 42 42 42 43 43 43 43 42 41 41 41 39 39 39 39 38 39 39 37 36 36 35 35 35 34 33 32 31 30 30 30 30 29 29
34 35 36 38 39 41 42 43 44 45 45 46 46 46 45 45 44 43 43 43 43 42 42 42 42 42 42 42 40 39 39 38 37 37 36 35 34 33 32 32 32 31 31
37 38 40 41 43 44 46 47 47 48 48 49 49 49 48 47 47 46 45 45 45 45 45 45 45 45 44 44 44 43 42 41 40 40 39 38 37 36 35 34 34 33 33
41 42 43 45 46 47 49 50 50 51 52 52 52 51 51 50 49 49 48 47 47 48 47 48 48 48 48 47 46 46 46 45 43 42 42 41 39 38 37 36 36 36 35
44 45 47 48 50 51 52 52 53 53 54 55 55 54 54 53 51 50 50 50 49 50 49 49 49 50 50 50 49 48 48 47 46 46 45 44 43 41 40 38 37 37 36
47 49 51 52 53 54 55 56 56 56 56 56 56 55 55 55 53 52 52 52 51 51 51 50 51 51 51 51 51 50 49 48 48 47 46 46 45 44 42 41 39 38 37
51 53 54 55 57 58 58 59 59 59 58 57 57 56 57 56 55 54 53 53 52 51 51 51 51 50 50 51 51 51 50 49 49 48 47 47 46 46 44 43 41 40 39
55 56 57 59 60 61 61 61 61 62 61 60 58 58 58 57 56 55 54 53 52 51 50 50 50 50 49 49 49 49 50 50 50 49 48 48 47 47 46 45 43 42 41
57 59 60 62 63 63 63 63 64 64 63 62 60 59 59 57 56 54 54 53 52 50 49 49 49 48 48 48 47 48 49 49 49 49 49 49 48 48 47 46 45 44 42
60 61 63 64 64 64 64 65 65 65 63 62 61 60 59 57 55 54 53 52 51 50 49 48 48 47 47 47 47 47 48 49 49 48 49 49 48 47 47 47 47 45 44
62 64 65 65 65 66 65 66 65 65 63 62 60 59 58 57 55 54 53 52 51 49 48 47 46 46 46 46 47 47 47 47 47 48 48 48 49 48 47 47 47 46 44
65 66 66 66 66 66 66 66 66 65 63 61 60 59 57 56 55 54 52 50 49 48 46 45 45 44 44 44 45 45 45 46 46 47 47 46 47 47 46 47 47 46 45
66 67 67 67 67 67 66 66 66 64 63 61 60 59 57 56 54 53 51 50 48 46 45 44 43 43 43 42 44 44 44 44 45 45 47 46 45 45 45 45 46 46 46
67 68 68 68 68 67 67 67 65 64 62 61 60 58 57 54 52 51 49 48 46 45 42 41 41 41 41 41 41 41 41 43 44 45 46 46 45 45 45 45 45 45 45
69 69 69 69 68 67 67 66 65 63 61 60 58 57 55 52 51 48 47 45 44 42 40 39 39 38 39 38 39 40 40 41 43 44 45 46 45 44 44 44 44 43 44

GEFSGL_500_meanwind_120.txt.gz
Wind_Speed
4 5 7 8 10 11 12 14 15 16 17 18 18 19 20 20 21 20 20 18 17 15 14 12 10 9 7 6 5 5 6 7 8 10 13 15 17 18 21 23 23 24 25
4 5 7 9 10 11 12 13 14 15 16 18 19 19 20 21 21 21 21 20 18 17 15 14 12 11 9 8 7 7 8 8 9 10 12 14 16 18 20 22 24 25 26
5 6 8 9 10 11 12 13 14 16 17 18 19 19 20 21 22 22 22 21 20 18 16 15 14 13 12 11 10 10 10 10 11 12 13 15 17 18 20 21 23 25 26
7 8 9 10 11 12 13 14 15 16 17 18 19 20 21 21 22 23 23 23 22 20 19 17 16 16 15 14 13 12 12 12 13 14 15 16 18 19 21 22 23 25 26
9 9 10 12 12 13 14 15 16 17 18 19 20 21 22 23 24 24 24 24 23 22 21 20 19 18 18 17 16 16 15 15 15 16 17 18 19 20 21 23 24 25 26
10 11 12 13 14 15 16 17 17 18 19 20 21 22 24 25 26 27 27 26 26 25 25 23 22 21 20 20 20 19 19 19 18 18 19 21 21 22 22 24 25 26 28
12 13 14 15 16 17 18 18 19 20 21 22 23 25 26 27 28 29 29 29 29 29 28 27 25 24 24 23 23 22 21 21 22 22 22 23 24 25 25 26 26 27 29
15 15 16 17 18 18 19 20 21 22 23 24 26 27 29 30 31 31 31 32 32 32 32 30 29 27 26 26 26 26 25 25 25 25 25 25 26 27 28 29 29 30 31
17 18 18 19 20 21 22 23 24 25 26 27 28 30 31 32 33 34 34 35 35 35 35 34 32 30 28 28 29 30 30 30 29 29 29 29 29 29 30 32 32 32 32
20 20 21 22 23 24 25 26 27 28 29 31 32 33 35 36 37 37 38 38 38 38 38 38 36 34 33 32 32 33 34 34 34 33 33 33 33 33 33 34 34 34 34
22 23 24 25 26 27 28 29 30 31 33 34 35 37 38 39 40 40 41 41 41 41 41 41 40 38 37 36 36 36 37 37 38 37 37 36 36 37 36 37 37 37 36
25 26 27 28 29 30 31 32 33 34 36 37 39 40 41 42 43 44 44 44 45 45 44 44 43 42 41 41 40 40 41 42 41 41 41 40 40 40 40 40 40 40 39
28 30 30 31 32 33 34 35 36 38 39 41 42 44 45 45 46 47 47 47 48 48 47 47 46 45 45 45 44 44 44 44 44 44 43 43 43 43 43 43 43 43 43
31 32 33 34 35 36 37 39 40 42 43 45 46 47 48 49 50 50 50 51 51 51 51 51 50 49 48 47 47 47 47 47 48 47 47 46 45 45 45 46 46 46 45
34 35 36 38 39 40 41 42 44 45 47 49 50 51 52 53 54 54 54 55 55 54 54 53 53 52 51 50 49 49 49 49 50 50 50 49 48 48 48 47 47 47 48
38 39 40 41 42 43 44 46 47 49 51 52 53 55 56 57 57 58 58 58 58 57 56 54 54 53 52 52 52 51 51 50 51 52 51 51 51 50 50 49 49 49 49
41 42 43 44 45 46 47 48 50 52 54 55 57 58 59 60 61 61 61 60 60 59 58 56 56 55 53 53 54 53 52 51 52 52 53 53 52 52 52 51 50 50 50
43 44 45 47 47 48 50 52 53 55 56 58 60 61 62 63 63 63 63 62 61 60 59 58 57 56 54 54 54 54 53 51 51 52 53 53 53 52 51 51 51 50 50
46 47 48 49 50 52 54 55 57 58 59 61 62 64 65 65 65 64 64 63 62 61 59 58 57 56 55 53 53 53 53 51 51 51 51 50 51 51 50 50 50 51 51
48 49 51 52 53 55 57 58 60 61 62 64 65 66 67 66 66 65 64 64 62 61 59 58 57 55 54 53 52 52 53 52 51 51 51 50 50 50 50 50 50 50 50
50 52 53 55 56 58 59 61 62 64 65 65 66 67 68 68 67 66 65 63 62 61 59 58 56 55 54 54 53 52 52 51 50 50 50 49 49 49 50 51 50 49 49
53 54 55 57 58 60 62 64 65 66 67 67 68 68 68 68 67 66 64 63 62 61 60 59 58 56 55 54 53 51 50 49 48 48 48 48 48 47 48 49 50 49 48
54 56 58 60 61 63 65 66 67 67 68 69 69 69 69 68 67 66 64 62 61 61 60 59 57 55 54 52 51 50 49 47 46 46 46 46 46 46 46 47 47 48 48
57 59 61 62 64 65 66 67 68 68 69 69 69 69 68 68 66 65 64 62 61 60 59 58 56 54 52 50 48 48 46 45 44 44 44 44 43 44 44 45 45 46 46
60 62 63 64 65 66 67 68 68 69 70 70 70 69 68 67 65 64 62 61 60 59 58 56 54 51 49 47 46 45 45 45 43 42 42 42 42 41 42 42 42 43 44
62 64 65 66 66 67 68 69 70 70 70 70 70 68 67 66 64 63 61 60 58 57 55 53 50 47 45 44 43 43 43 43 42 40 41 41 40 40 41 41 41 42 43

GEFSGL_500_meanwind_126.txt.gz
Wind_Speed
2 3 4 5 6 8 9 10 11 12 13 14 15 16 17 17 18 19 19 19 19 19 18 18 17 17 15 14 12 11 11 10 8 8 10 11 12 15 17 18 20 22 24
3 3 4 5 6 8 9 10 11 11 12 13 15 15 16 17 18 18 18 19 19 19 19 19 18 18 17 15 14 14 13 12 11 10 11 12 13 15 17 18 20 22 24
4 4 5 6 7 8 9 10 11 11 12 13 14 15 16 17 18 18 19 19 19 19 20 20 20 19 18 17 17 16 16 15 14 13 12 13 14 15 17 19 20 22 24
5 6 6 7 8 9 10 11 11 12 13 14 15 15 16 17 18 18 19 20 20 20 21 21 21 21 20 20 19 19 18 17 17 16 15 15 16 17 19 20 21 22 24
7 7 8 9 10 11 12 12 13 14 15 15 16 16 17 17 18 19 20 21 21 22 23 23 23 23 23 23 22 22 21 20 19 18 18 17 18 19 20 22 23 24 25
9 10 10 11 12 13 14 15 16 16 17 17 17 18 18 19 20 21 22 23 23 24 25 25 25 25 25 25 25 25 24 23 22 21 21 20 21 21 22 23 25 26 28
11 12 12 13 14 15 16 17 18 19 19 19 20 20 21 22 23 23 24 24 26 27 27 28 28 28 28 28 28 28 27 26 26 25 24 24 25 25 25 26 27 28 29
13 14 14 15 16 17 18 19 20 21 21 22 23 23 24 25 25 26 27 27 29 30 31 31 31 31 32 32 31 31 30 30 29 29 28 28 28 29 29 30 30 31 31
15 16 17 18 19 19 20 21 22 22 23 24 25 26 26 27 28 29 30 31 32 33 35 35 35 35 35 35 35 34 33 33 33 32 31 31 32 32 32 33 34 34 35
17 18 19 20 21 22 22 23 24 25 26 27 28 29 29 30 31 32 33 34 35 37 38 38 39 39 39 39 39 38 37 37 37 37 36 35 35 36 36 37 37 38 38
20 20 21 23 23 24 25 26 27 27 28 30 31 32 33 34 35 36 36 37 39 40 41 42 42 43 43 43 42 42 41 41 41 41 40 39 39 40 40 40 41 42 42
22 23 24 25 26 27 27 28 29 30 31 32 33 34 35 36 38 39 40 41 43 44 45 45 46 46 46 46 45 45 45 45 45 45 44 43 42 43 44 44 45 46 45
24 25 26 28 28 29 30 31 32 33 34 35 36 37 38 39 41 42 43 45 46 47 48 48 49 50 50 49 49 49 49 49 49 49 48 47 46 47 47 48 48 48 48
27 28 29 30 31 32 33 34 35 36 37 38 39 40 41 43 44 45 47 48 49 51 51 52 52 53 53 52 52 52 53 53 53 52 51 51 50 50 51 51 51 51 51
30 31 32 33 34 35 36 37 38 39 40 41 42 43 44 45 47 48 50 51 53 54 55 55 56 56 55 55 55 54 55 55 55 53 53 52 52 53 53 53 53 53 54
33 34 35 36 36 37 38 40 41 42 43 44 45 46 47 49 50 52 53 55 56 57 58 58 58 58 57 57 56 56 56 56 56 55 54 54 54 55 55 54 54 55 56
35 37 38 38 39 40 41 42 43 44 45 46 48 49 51 52 54 55 56 58 59 60 61 60 60 60 59 58 58 58 57 57 56 55 55 55 56 56 56 55 54 55 56
39 40 40 41 42 43 44 45 46 46 47 49 51 53 54 55 57 58 59 61 61 62 63 62 62 62 61 60 60 60 59 57 56 56 56 55 55 55 54 54 54 54 55
42 43 43 44 45 46 47 47 48 49 50 51 53 55 57 58 59 61 62 64 64 64 64 64 64 63 63 62 62 61 60 58 57 57 56 55 54 54 52 52 53 53 53
44 45 46 46 48 48 49 50 50 51 53 54 56 57 59 60 62 63 65 65 65 66 66 65 65 65 65 64 63 61 60 59 58 57 56 54 53 52 51 50 50 50 49
47 47 48 49 50 50 51 52 53 54 56 57 59 60 62 64 65 66 66 66 66 67 67 66 66 66 65 65 63 61 60 59 57 56 55 54 52 50 49 48 47 47 47
48 49 50 51 52 52 53 54 56 57 59 60 62 63 65 66 66 66 66 67 68 68 68 68 68 67 66 65 63 61 60 58 57 56 55 52 50 48 46 45 44 44 45
50 51 52 52 53 54 56 57 58 60 62 63 64 65 66 67 67 68 68 68 68 68 69 68 68 67 66 64 63 61 60 58 56 54 52 50 48 46 45 44 43 42 42
52 53 53 54 55 57 58 59 61 63 64 65 66 67 68 68 68 69 69 69 68 68 68 68 67 66 64 63 61 60 57 54 52 50 49 47 46 45 44 42 41 40 39
53 54 55 57 58 59 61 62 64 65 66 67 67 68 69 69 69 69 69 68 68 68 68 67 66 65 63 61 59 56 54 51 49 47 46 45 44 43 41 40 39 38 37
55 56 58 59 61 62 63 64 65 66 67 68 68 69 69 69 69 69 68 68 68 68 67 66 65 63 60 57 55 53 51 49 47 45 45 43 42 41 39 38 37 36 36

GEFSGL_500_meanwind_132.txt.gz
Wind_Speed
6 5 3 1 1 2 4 5 6 8 9 9 10 11 12 12 12 12 12 12 12 11 11 11 11 11 11 11 11 11 11 10 8 7 7 7 7 8 10 13 15 18 19
7 6 4 3 2 2 3 4 6 7 8 9 9 10 11 12 12 12 12 12 12 11 11 11 11 11 11 12 12 12 12 11 10 9 9 9 10 10 11 13 15 18 20
8 7 5 4 3 3 4 5 6 7 8 9 9 10 10 11 11 11 12 12 12 12 12 12 12 12 12 13 14 14 13 13 12 11 11 12 12 13 14 15 16 18 20
9 8 6 5 5 5 5 6 7 8 8 9 10 10 11 11 12 12 12 12 12 13 13 13 14 14 14 15 16 16 15 15 15 14 15 15 16 17 17 18 19 20 21
10 9 8 7 7 7 7 8 8 9 10 10 11 11 12 12 13 13 14 14 14 14 15 15 16 16 17 17 18 18 18 18 18 18 18 19 20 20 20 21 21 22 23
11 10 10 9 9 9 9 10 10 11 12 12 12 13 14 14 15 15 16 16 16 17 17 18 19 20 20 20 21 21 21 21 22 22 22 23 23 24 24 24 25 26 26
12 11 11 11 11 11 11 12 12 13 13 14 14 15 16 16 17 17 18 18 19 20 21 21 22 23 24 24 24 24 25 26 26 26 27 27 27 28 28 28 29 29 30
13 13 12 12 12 13 13 13 14 15 15 16 16 17 18 19 19 20 20 21 22 22 23 24 25 26 27 27 27 28 29 30 30 30 30 30 31 31 32 32 32 33 33
15 14 14 14 14 14 15 15 16 16 17 18 19 20 21 21 22 22 23 24 25 25 26 27 28 29 30 30 31 32 33 33 33 34 33 33 34 35 35 35 35 36 36
16 16 16 16 16 16 17 18 18 19 20 21 21 22 23 23 24 25 26 27 27 28 29 30 31 32 33 33 35 36 36 37 37 37 37 38 38 39 39 40 39 40 40
17 17 17 18 18 18 19 20 20 21 22 23 24 25 26 27 28 28 29 29 30 31 31 33 34 35 36 37 38 39 40 40 41 41 41 41 42 43 43 44 44 45 45
18 19 19 20 20 20 21 22 23 24 25 26 27 28 28 30 31 31 32 32 33 33 34 36 37 38 39 40 41 42 43 44 44 44 45 45 45 46 47 48 48 49 49
20 21 21 22 22 23 23 24 25 26 27 28 29 30 31 32 33 34 34 35 36 36 38 39 40 41 42 43 44 45 46 46 47 48 48 48 49 49 50 51 51 52 51
22 23 23 23 24 25 25 27 28 29 30 31 32 33 34 35 36 36 37 38 39 40 41 42 43 44 45 46 48 48 49 49 50 51 51 51 51 51 52 53 53 53 53
24 25 25 26 26 27 28 29 31 32 33 34 35 35 36 37 38 39 40 41 42 43 44 45 47 48 49 50 51 51 52 52 52 53 54 54 53 54 54 54 55 56 56
26 26 27 28 29 30 31 32 33 35 36 36 37 39 40 40 41 43 43 44 45 46 48 49 50 51 52 52 53 54 55 55 55 56 56 56 56 55 56 56 57 57 58
28 29 30 31 32 33 34 35 36 37 38 39 40 42 43 43 44 45 46 47 48 49 50 51 52 53 54 55 56 57 57 57 58 58 58 58 57 57 57 57 57 57 57
31 32 33 34 35 36 37 38 39 40 41 42 43 44 45 46 47 48 49 50 51 52 53 54 55 55 57 58 58 59 59 59 59 59 59 59 59 58 59 58 57 57 57
34 34 35 36 37 38 40 41 42 43 44 45 46 47 48 49 49 50 51 52 53 54 55 56 57 57 58 59 60 60 60 60 59 59 60 60 60 60 60 59 58 57 56
36 37 38 39 40 41 42 44 45 46 47 47 48 50 50 51 51 52 54 55 56 57 57 58 59 59 60 61 61 61 61 61 61 61 61 61 61 60 60 59 57 55 54
39 40 41 42 43 44 45 46 47 48 49 50 51 51 52 53 54 55 56 57 57 58 59 60 60 61 61 62 62 62 62 63 63 62 62 61 60 60 58 57 55 53 51
41 42 43 44 45 46 47 48 49 50 50 51 52 52 53 55 56 57 58 58 59 60 60 61 62 63 63 63 63 64 64 64 63 63 63 62 60 58 56 54 52 50 49
43 44 45 46 47 48 49 50 51 51 52 52 53 54 55 56 57 58 59 60 61 62 62 63 64 64 64 65 65 65 64 64 64 63 63 60 58 56 53 51 49 48 48
46 46 47 48 49 50 50 51 52 53 53 54 55 56 57 58 59 60 61 62 63 63 64 64 64 65 65 65 65 64 65 64 63 62 60 58 55 52 50 48 47 46 45
47 48 48 49 50 51 52 52 53 54 55 56 57 58 58 59 60 61 62 63 64 64 64 65 65 65 65 65 64 64 64 63 61 59 57 54 52 50 48 46 45 44 43
49 49 50 51 51 52 53 54 55 56 56 57 58 59 60 61 62 63 63 64 65 65 65 65 65 65 64 64 63 63 62 60 58 56 54 52 49 48 46 44 43 42 42

GEFSGL_500_meanwind_138.txt.gz
Wind_Speed
9 7 5 4 2 0 2 3 5 6 7 8 9 10 11 11 12 12 12 12 12 11 11 10 10 10 10 10 10 10 10 10 10 10 9 9 9 9 9 9 10 11 12
10 8 7 5 4 2 2 3 4 5 6 8 9 10 10 10 11 11 11 12 12 12 11 11 11 11 11 11 11 11 12 12 11 11 11 11 11 11 11 12 12 13 14
11 10 8 7 6 4 3 3 4 5 6 7 9 10 10 10 11 11 11 11 12 12 12 12 12 12 13 13 13 13 13 13 13 13 13 13 13 13 13 14 15 16 16
12 11 10 8 7 6 5 4 4 5 6 7 8 9 10 11 11 11 12 12 13 13 13 13 13 14 14 14 14 15 15 16 16 16 16 16 16 17 17 17 17 18 19
13 12 11 10 9 7 7 6 6 6 7 8 8 9 10 11 12 12 13 13 14 14 14 15 15 16 16 16 16 17 18 18 18 18 19 19 19 19 20 20 21 22 23
14 13 12 11 10 9 8 8 8 8 8 9 9 10 11 12 13 13 14 15 15 16 16 16 17 18 18 19 19 20 20 20 21 21 22 22 22 23 23 24 25 26 26
15 14 14 13 12 11 10 10 10 10 10 10 11 11 12 13 14 15 16 17 17 18 18 18 19 20 20 21 21 22 23 23 24 24 24 24 25 26 27 28 29 30 31
17 15 15 14 14 13 12 12 12 12 12 12 13 14 14 15 16 17 18 18 19 19 20 20 21 22 23 23 24 25 26 26 27 27 28 28 29 30 30 32 33 34 34
18 17 16 15 15 14 14 13 13 14 14 15 15 16 17 17 18 18 19 20 21 22 22 23 23 24 25 26 26 27 28 29 30 30 31 32 33 33 35 36 37 38 38
18 18 17 17 16 15 15 15 15 16 16 17 17 18 19 19 20 21 21 22 23 24 24 25 26 27 28 28 29 29 30 32 33 33 34 36 36 37 38 40 40 41 41
19 19 18 17 17 17 17 17 17 18 18 19 19 20 21 22 22 23 24 25 26 26 27 28 28 29 30 31 32 33 34 35 36 37 37 38 39 40 42 43 44 45 46
20 19 19 19 19 19 19 19 19 20 20 21 22 22 23 24 25 26 26 27 28 29 29 30 31 32 33 34 35 36 37 38 39 40 41 42 43 44 45 46 47 49 49
21 21 20 20 20 20 21 21 22 22 23 23 24 24 25 26 27 28 29 30 31 32 33 33 34 35 36 37 39 40 41 42 43 44 45 46 46 47 48 49 50 51 51
23 22 22 22 22 22 23 23 24 24 25 25 26 26 27 28 29 31 32 33 34 35 36 36 38 39 40 41 42 43 44 46 47 48 48 49 49 50 50 51 51 52 53
24 24 24 24 24 24 24 25 25 26 27 28 28 29 30 31 32 33 35 36 37 38 39 40 41 42 43 44 45 46 47 48 49 50 50 51 51 52 53 54 54 55 55
26 26 26 26 26 26 26 27 27 28 29 30 31 32 33 34 35 36 38 39 40 41 42 43 44 45 45 46 47 49 50 50 51 51 52 53 53 54 55 55 56 57 56
27 27 27 27 27 28 29 29 29 30 31 32 33 34 35 37 38 40 41 42 43 44 45 46 46 47 48 49 50 51 51 52 52 53 53 54 54 55 56 56 57 58 58
28 28 29 29 29 30 30 31 31 32 33 34 35 37 38 40 41 42 43 44 45 46 47 48 48 49 50 51 51 52 52 52 53 54 55 55 56 56 57 58 59 59 59
28 29 30 30 31 31 32 33 34 34 35 37 38 39 41 42 43 44 45 46 47 48 49 49 50 51 52 52 53 53 53 53 54 55 56 57 57 58 59 60 61 61 61
30 31 31 32 33 33 34 35 36 37 38 39 40 42 44 45 45 46 47 48 49 50 50 51 52 53 53 54 54 54 55 55 56 57 58 59 59 60 61 62 63 63 63
33 33 34 35 35 36 36 37 38 40 41 42 43 45 46 46 47 48 49 50 51 51 52 53 54 54 54 54 55 56 57 57 58 59 60 61 61 62 63 64 64 63 63
35 36 36 37 38 38 39 40 41 42 44 45 46 47 48 48 49 50 51 51 52 53 53 54 54 55 55 56 57 58 58 59 60 61 62 63 63 64 63 63 62 62 60
38 38 39 39 40 41 42 43 44 45 46 47 48 49 49 50 51 51 52 52 53 53 54 55 55 56 57 58 59 59 60 61 62 63 64 64 64 63 62 61 60 59 58
41 41 41 42 43 44 44 45 46 47 48 49 50 50 51 52 52 52 53 53 54 55 55 56 57 58 59 59 60 60 61 62 63 64 64 63 62 61 60 59 59 58 56
43 43 44 44 45 46 46 47 48 49 50 50 51 51 51 52 52 53 54 54 55 56 57 58 59 60 60 60 61 61 62 63 64 63 63 62 61 60 59 58 57 55 53
44 44 45 45 46 47 48 49 49 50 50 51 51 51 52 53 54 54 55 56 57 58 59 59 60 60 60 60 61 62 63 63 63 62 62 61 61 60 58 56 55 53 52